STARLINK-1460 (45676 NORAD) Tracking and Keplerian Element Data

This shows tracking and keplerian element data for the satellite.

Feedback or suggestion? Click here.




ElementValue
Catalog45676
NameSTARLINK-1460
Epoch Orbit552
Epoch Day185.50001157
Epoch Year2020
RAAN25.2538
Inclination53.0001
Eccentricity0.000119
Argument of Perigee86.5371
Mean Anonmoly183.7417
Mean Motion15.47605459
Decay Rate-0.01079376
L11 45676U 20035V 20185.50001157 -.01079376 00000-0 -22742-1 0 9996
L22 45676 53.0001 25.2538 0001190 86.5371 183.7417 15.47605459 5524

Live tracking and technical data element details for STARLINK-1460 (NORAD 45676). STARLINK-1460 can be tracked NOW for your location showing map with azimuth and elevation plus other details from your city location.

Track the satellite on the map from your city or location and see movement details for azimuth, elevation, latitude, longitude, range, height, and movement on the map or in text.







IsCatalogInMostPopularTable: catalog: 45676, numindb: 4
Update: records affected: 1



GetName: 45676 STARLINK-1460

Hit Count: updated at: Sat, 04 Jul 2020 03:24:24 GMT